TimeEDT,TemperatureF,Dew PointF,Humidity,Sea Level PressureIn,VisibilityMPH,Wind Direction,Wind SpeedMPH,Gust SpeedMPH,PrecipitationIn,Events,Conditions,WindDirDegrees,DateUTC
12:15 AM,48.2,42.8,82,30.26,10.0,SE,5.8,-,N/A,,Overcast,140,2013-04-30 04:15:00
12:35 AM,48.2,41.0,76,30.26,10.0,SSE,6.9,-,N/A,,Overcast,150,2013-04-30 04:35:00
12:55 AM,48.2,41.0,76,30.26,10.0,SSE,6.9,-,N/A,,Scattered Clouds,150,2013-04-30 04:55:00
1:15 AM,48.2,41.0,76,30.26,10.0,SE,6.9,-,N/A,,Scattered Clouds,140,2013-04-30 05:15:00
1:35 AM,48.2,41.0,76,30.25,10.0,SE,5.8,-,N/A,,Overcast,140,2013-04-30 05:35:00
1:55 AM,46.4,39.2,76,30.25,10.0,ESE,3.5,-,N/A,,Scattered Clouds,120,2013-04-30 05:55:00
2:15 AM,46.4,39.2,76,30.25,10.0,Calm,Calm,-,N/A,,Clear,0,2013-04-30 06:15:00
2:35 AM,46.4,41.0,81,30.25,10.0,Calm,Calm,-,N/A,,Clear,0,2013-04-30 06:35:00
2:55 AM,46.4,41.0,81,30.25,10.0,East,3.5,-,N/A,,Clear,100,2013-04-30 06:55:00
3:15 AM,46.4,42.8,87,30.25,10.0,ENE,3.5,-,N/A,,Clear,70,2013-04-30 07:15:00
3:35 AM,46.4,42.8,87,30.25,10.0,ENE,4.6,-,N/A,,Clear,70,2013-04-30 07:35:00
3:55 AM,46.4,42.8,87,30.25,10.0,East,5.8,-,N/A,,Clear,80,2013-04-30 07:55:00
4:15 AM,46.4,42.8,87,30.25,10.0,East,4.6,-,N/A,,Clear,80,2013-04-30 08:15:00
4:35 AM,46.4,42.8,87,30.26,10.0,East,4.6,-,N/A,,Clear,80,2013-04-30 08:35:00
4:55 AM,46.4,42.8,87,30.26,10.0,East,4.6,-,N/A,,Clear,80,2013-04-30 08:55:00
5:15 AM,46.4,39.2,76,30.26,10.0,East,4.6,-,N/A,,Clear,80,2013-04-30 09:15:00
5:35 AM,46.4,39.2,76,30.27,10.0,East,4.6,-,N/A,,Clear,80,2013-04-30 09:35:00
5:55 AM,46.4,39.2,76,30.27,10.0,East,3.5,-,N/A,,Clear,90,2013-04-30 09:55:00
6:15 AM,46.4,39.2,76,30.28,10.0,East,5.8,-,N/A,,Clear,90,2013-04-30 10:15:00
6:35 AM,46.4,39.2,76,30.28,10.0,East,4.6,-,N/A,,Clear,80,2013-04-30 10:35:00
6:55 AM,48.2,41.0,76,30.29,10.0,East,4.6,-,N/A,,Clear,80,2013-04-30 10:55:00
7:15 AM,50.0,41.0,71,30.30,10.0,East,4.6,-,N/A,,Clear,80,2013-04-30 11:15:00
7:35 AM,51.8,41.0,67,30.30,10.0,East,9.2,-,N/A,,Clear,90,2013-04-30 11:35:00
7:55 AM,51.8,39.2,62,30.30,10.0,East,9.2,-,N/A,,Clear,80,2013-04-30 11:55:00
8:15 AM,51.8,41.0,67,30.31,10.0,East,8.1,-,N/A,,Clear,80,2013-04-30 12:15:00
8:35 AM,51.8,41.0,67,30.32,10.0,East,10.4,-,N/A,,Clear,80,2013-04-30 12:35:00
8:55 AM,51.8,42.8,71,30.32,10.0,East,8.1,-,N/A,,Clear,80,2013-04-30 12:55:00
9:15 AM,51.8,42.8,71,30.33,10.0,East,9.2,-,N/A,,Clear,80,2013-04-30 13:15:00
9:35 AM,53.6,42.8,67,30.33,10.0,East,6.9,-,N/A,,Clear,90,2013-04-30 13:35:00
9:55 AM,53.6,42.8,67,30.34,10.0,East,8.1,-,N/A,,Clear,100,2013-04-30 13:55:00
10:15 AM,53.6,42.8,67,30.34,10.0,East,11.5,-,N/A,,Clear,90,2013-04-30 14:15:00
10:35 AM,53.6,42.8,67,30.34,10.0,East,9.2,-,N/A,,Clear,100,2013-04-30 14:35:00
10:55 AM,53.6,41.0,62,30.34,10.0,East,9.2,-,N/A,,Clear,100,2013-04-30 14:55:00
11:15 AM,55.4,39.2,54,30.34,10.0,East,8.1,-,N/A,,Clear,90,2013-04-30 15:15:00
11:55 AM,55.4,37.4,51,30.34,10.0,East,8.1,-,N/A,,Clear,90,2013-04-30 15:55:00
12:15 PM,55.4,37.4,51,30.34,10.0,East,9.2,-,N/A,,Clear,100,2013-04-30 16:15:00
12:35 PM,55.4,39.2,54,30.34,10.0,East,6.9,-,N/A,,Clear,90,2013-04-30 16:35:00
12:55 PM,55.4,39.2,54,30.34,9.0,East,6.9,-,N/A,,Clear,90,2013-04-30 16:55:00
1:15 PM,55.4,37.4,51,30.34,10.0,East,9.2,-,N/A,,Clear,90,2013-04-30 17:15:00
1:35 PM,57.2,35.6,44,30.34,10.0,ESE,8.1,-,N/A,,Clear,110,2013-04-30 17:35:00
1:55 PM,57.2,33.8,41,30.34,9.0,East,9.2,-,N/A,,Clear,100,2013-04-30 17:55:00
2:35 PM,57.2,35.6,44,30.33,10.0,SE,9.2,-,N/A,,Clear,130,2013-04-30 18:35:00
2:55 PM,57.2,33.8,41,30.33,10.0,SE,10.4,-,N/A,,Clear,140,2013-04-30 18:55:00
3:15 PM,57.2,33.8,41,30.33,10.0,SE,11.5,-,N/A,,Clear,130,2013-04-30 19:15:00
3:35 PM,57.2,32.0,38,30.33,10.0,SE,10.4,-,N/A,,Clear,130,2013-04-30 19:35:00
3:55 PM,57.2,28.4,33,30.32,10.0,SE,11.5,-,N/A,,Clear,140,2013-04-30 19:55:00
4:15 PM,55.4,30.2,38,30.32,10.0,SE,10.4,-,N/A,,Clear,140,2013-04-30 20:15:00
4:36 PM,55.4,30.2,38,30.33,10.0,SE,9.2,-,N/A,,Clear,140,2013-04-30 20:36:00
4:55 PM,55.4,30.2,38,30.32,10.0,SE,10.4,-,N/A,,Clear,140,2013-04-30 20:55:00
5:35 PM,55.4,30.2,38,30.33,10.0,SSE,8.1,-,N/A,,Clear,150,2013-04-30 21:35:00
5:55 PM,55.4,30.2,38,30.33,10.0,SSE,6.9,-,N/A,,Clear,150,2013-04-30 21:55:00
6:15 PM,53.6,32.0,44,30.33,10.0,SSE,8.1,-,N/A,,Clear,160,2013-04-30 22:15:00
6:35 PM,53.6,33.8,47,30.33,10.0,South,6.9,-,N/A,,Clear,170,2013-04-30 22:35:00
6:55 PM,51.8,35.6,54,30.34,10.0,SSE,5.8,-,N/A,,Clear,160,2013-04-30 22:55:00
7:15 PM,51.8,35.6,54,30.34,10.0,Calm,Calm,-,N/A,,Clear,0,2013-04-30 23:15:00
7:35 PM,50.0,35.6,58,30.34,10.0,Calm,Calm,-,N/A,,Clear,0,2013-04-30 23:35:00
8:15 PM,50.0,35.6,58,30.34,10.0,South,3.5,-,N/A,,Clear,170,2013-05-01 00:15:00
8:35 PM,48.2,33.8,58,30.35,10.0,Calm,Calm,-,N/A,,Clear,0,2013-05-01 00:35:00
8:55 PM,46.4,33.8,62,30.36,10.0,Calm,Calm,-,N/A,,Clear,0,2013-05-01 00:55:00
9:15 PM,46.4,35.6,66,30.36,10.0,Calm,Calm,-,N/A,,Clear,0,2013-05-01 01:15:00
9:35 PM,46.4,35.6,66,30.36,10.0,Calm,Calm,-,N/A,,Clear,0,2013-05-01 01:35:00
9:55 PM,46.4,37.4,71,30.36,10.0,North,3.5,-,N/A,,Clear,10,2013-05-01 01:55:00
10:35 PM,44.6,37.4,76,30.35,10.0,East,3.5,-,N/A,,Clear,80,2013-05-01 02:35:00
10:55 PM,46.4,35.6,66,30.36,10.0,Calm,Calm,-,N/A,,Clear,0,2013-05-01 02:55:00
11:15 PM,46.4,37.4,71,30.35,10.0,East,3.5,-,N/A,,Clear,80,2013-05-01 03:15:00
11:35 PM,46.4,39.2,76,30.35,10.0,East,4.6,-,N/A,,Clear,80,2013-05-01 03:35:00
11:55 PM,44.6,37.4,76,30.35,10.0,ENE,3.5,-,N/A,,Clear,70,2013-05-01 03:55:00